Location: Piotrkow Trybunalski
(51.4000°N, 19.6830°E)
Time: 05:35:28
(UTC+01:00)

A-11 Canister half - Visible Passes

Search period start: 30 January 2023 00:00
Search period end: 09 February 2023 00:00
Orbit: 1525 x 1683 km, 47.3° (Epoch: 29 January)

Date Brightness Start Highest point End Pass type
(mag) Time Alt. Az. Time Alt. Az. Time Alt. Az.
30 Jan 10.9 05:20:36 10° S 05:27:29 24° SE 05:34:26 10° E visible
31 Jan 10.9 04:59:12 10° S 05:05:53 23° SE 05:12:38 10° E visible
01 Feb 10.9 04:37:49 10° S 04:44:18 22° SE 04:50:49 10° E visible
01 Feb 9.9 06:38:43 10° SW 06:47:34 51° SSE 06:56:34 10° E visible
02 Feb 10.9 04:16:27 10° S 04:22:42 20° SE 04:28:59 10° E visible
02 Feb 9.9 06:17:08 10° SW 06:25:55 49° SSE 06:34:51 10° E visible
03 Feb 10.9 03:55:07 10° S 04:01:07 19° SE 04:07:09 10° E visible
03 Feb 9.8 05:55:32 10° SW 06:04:16 48° SSE 06:13:09 10° E visible
04 Feb 10.8 03:33:48 10° SSE 03:39:32 18° SE 03:45:17 10° E visible
04 Feb 9.8 05:33:56 10° SW 05:42:38 47° SSE 05:51:26 10° E visible
05 Feb 10.8 03:12:41 10° SSE 03:17:57 17° SE 03:23:24 10° E visible
05 Feb 9.8 05:12:22 10° SW 05:20:59 45° SSE 05:29:43 10° E visible
06 Feb 10.8 02:52:48 13° SSE 02:56:22 16° SE 03:01:29 10° E visible
06 Feb 9.8 04:51:09 11° SW 04:59:21 44° SSE 05:08:01 10° E visible
07 Feb 10.8 02:32:47 14° SE 02:34:48 15° SE 02:39:32 10° E visible
07 Feb 9.8 04:31:07 17° SSW 04:37:43 42° SSE 04:46:18 10° E visible
07 Feb 9.3 06:32:37 10° WSW 06:41:49 68° S 06:51:09 10° E visible
08 Feb 10.8 02:12:39 14° SE 02:13:13 14° SE 02:17:32 10° E visible
08 Feb 9.8 04:10:58 23° SSW 04:16:05 41° SSE 04:24:34 10° E visible
08 Feb 9.3 06:10:58 10° WSW 06:20:08 67° S 06:29:27 10° E visible
